Regional Weather Roundup
Issued by NWS

Home | Current Version | Previous Version | Text Only | Print | Product List | Glossary On
Versions: 1 2 3 4 5 6 7 8 9 10 11 12 13 14 15 16 17 18 19 20 21 22 23 24 25 26 27 28 29 30 31 32 33 34 35 36 37 38 39 40 41 42 43 44 45 46 47 48 49 50
000
ASUS43 KMKX 280100
RWRWI

WISCONSIN REGIONAL WEATHER ROUNDUP
NATIONAL WEATHER SERVICE MILWAUKEE/SULLIVAN WI
700 PM CST MON FEB 27 2017

NOTE: "FAIR" INDICATES FEW OR NO CLOUDS BELOW 12,000 FEET WITH NO
SIGNIFICANT WEATHER AND/OR OBSTRUCTIONS TO VISIBILITY.

WIZ001-002-006>008-014>016-023>028-280200-
NORTHWEST WISCONSIN

CITY           SKY/WX    TMP DP  RH WIND       PRES   REMARKS
SUPERIOR ARPT  CLOUDY    28  26  89 E5        29.93R WCI  23
ASHLAND        MOCLDY    25  23  92 N3        29.94R
HAYWARD        CLOUDY    36  16  44 S7        29.92R WCI  30
SIREN          PTCLDY    38  18  45 S7        29.90S WCI  32
CUMBERLAND     MOCLDY    32  21  64 SE6       29.91S WCI  26
RICE LAKE      CLEAR     35  21  57 E5        29.94S WCI  31
CHETEK         CLEAR     32  22  64 CALM      29.93S
LADYSMITH      CLOUDY    37  20  49 SE3       29.95S
EAU CLAIRE     NOT AVBL
MENOMONIE      CLOUDY    36  23  59 SE3       29.93S
NEW RICHMOND   MOCLDY    34  22  60 SE3       29.91S
OSCEOLA        PTCLDY    37  23  57 SE7       29.93S WCI  31
$$

WIZ003>005-009-010-017-018-280200-
NORTH CENTRAL WISCONSIN

CITY           SKY/WX    TMP DP  RH WIND       PRES   REMARKS
MANITOWISH WTR PTCLDY    32  17  54 S5        29.94R WCI  27
ARBOR VITAE    PTCLDY    37  20  51 S6          N/A  WCI  32
WOODRUFF       PTCLDY    37  20  51 S6          N/A  WCI  32
RHINELANDER    PTCLDY    33  17  51 CALM      29.97R
EAGLE RIVER    PTCLDY    32  15  50 S3        29.96R
LAND O LAKES   CLEAR     33  17  53 S3        29.97R
PHILLIPS       CLOUDY    35  20  54 S5        29.94R WCI  30
TOMAHAWK       PTCLDY    29  19  66 CALM      29.97S
MEDFORD        PTCLDY    32  18  56 SE3       29.96R
MERRILL        NOT AVBL
$$

WIZ029-030-035-036-043>047-280200-
CENTRAL WISCONSIN

CITY           SKY/WX    TMP DP  RH WIND       PRES   REMARKS
WAUSAU         CLOUDY    36  21  54 SE7       29.98R WCI  30
MOSINEE        NOT AVBL
MARSHFIELD     CLEAR     36  24  62 SE6       29.97R WCI  31
STEVENS POINT  CLEAR     35  26  71 SE5       30.01S WCI  30
WAUPACA        CLEAR     37  29  75 E3        30.03S
WAUTOMA        CLEAR     32  28  85 CALM      30.03S
WISC RAPIDS    CLEAR     35  27  72 SE5       30.01S WCI  31
CAMP DOUGLAS   NOT AVBL
$$

WIZ011>013-019>022-031-037>040-048>050-280200-
NORTHEAST WISCONSIN

CITY           SKY/WX    TMP DP  RH WIND       PRES   REMARKS
ANTIGO         MOCLDY    32  23  69 SE9       29.99S WCI  24
SHAWANO        PTCLDY    36  28  73 S6        30.04R WCI  32
OCONTO         CLOUDY    33  29  84 S5        30.06S WCI  28
STURGEON BAY   PTCLDY    34  31  88 S8        30.07S WCI  27
GREEN BAY      CLEAR     34  31  88 SE5       30.05S WCI  30
MANITOWOC      NOT AVBL
APPLETON       PTCLDY    36  28  75 SE6       30.02S WCI  31
CLINTONVILLE   CLEAR     34  27  75 S6        30.03S WCI  29
OSHKOSH        CLEAR     35  29  78 SE5       30.03S WCI  31
$$

WIZ032>034-041-042-053>061-280200-
SOUTHWEST WISCONSIN

CITY           SKY/WX    TMP DP  RH WIND       PRES   REMARKS
LA CROSSE      CLEAR     42  30  62 SE8       29.95F
SPARTA         CLEAR     35  29  78 E3        29.98F
VIROQUA        CLEAR     39  32  76 E7        29.95F WCI  34
BOSCOBEL       MOCLDY    37  31  78 NE3       29.98S
PRAIRIE DU CHI MOCLDY    43  32  64 E7        29.96S
PLATTEVILLE    CLOUDY    43  32  65 E6        29.98F
$$

WIZ056-057-062-063-064-067-068-280200-
SOUTH CENTRAL WISCONSIN

CITY           SKY/WX    TMP DP  RH WIND       PRES   REMARKS
REEDSBURG      PTCLDY    40  32  74 CALM      29.99S
BARABOO/DELLS  PTCLDY    35  30  80 SE3       29.99F
LONE ROCK      NOT AVBL
MINERAL POINT  CLOUDY    43  32  65 SE3       29.98S
MADISON        CLOUDY    39  29  67 E3        30.01S
MIDDLETON      CLOUDY    42  32  68 E3        30.01F
WATERTOWN      CLOUDY    39  32  75 SE5       30.03S
MONROE         CLOUDY    41  32  70 SE8       30.00S
JANESVILLE     PTCLDY    43  34  70 E6        30.02F
$$

WIZ051-052-058>065-066-070>072-280200-
SOUTHEAST WISCONSIN

CITY           SKY/WX    TMP DP  RH WIND       PRES   REMARKS
MILWAUKEE      CLOUDY    42  33  70 S7        30.06S
WAUKESHA       PTCLDY    39  32  75 SE7       30.06R WCI  34
MILWAUKEE/TIMM CLEAR     43  30  61 S6        30.06R
RACINE         CLOUDY    42  33  70 S9        30.08S
KENOSHA        CLOUDY    40  33  76 SE8       30.06F WCI  34
FOND DU LAC    CLOUDY    38  30  73 SE10      30.03S WCI  31
SHEBOYGAN      PTCLDY    34  31  88 S3        30.06R
WEST BEND      CLOUDY    36  32  87 CALM      30.05S
JUNEAU         PTCLDY    41  32  70 SE7       30.04S
$$

LSZ147-162-280200-
LAKE SUPERIOR

STATION/POSITION TIME  TEMP    WIND        PRES    WAVE
                       AIR SEA DIR/SP/G            HT/PER
                 (UTC) (F)     (DEG/KT/KT) (MB)    (FT/S)
DEVILS ISLAND    0000   29      70/ 11/ 12 1014.8F
PORT WING        0040   29      50/  7/  7 1013.2S
SAXON HARBOR     0040   29     200/  1/  2 1013.9R
$$

LMZ867-665-643>646-280200-
LAKE MICHIGAN

STATION/POSITION TIME  TEMP    WIND        PRES    WAVE
                       AIR SEA DIR/SP/G            HT/PER
                 (UTC) (F)     (DEG/KT/KT) (MB)    (FT/S)
CHAMBERS ISLAND  0040   34     150/  3/  8 1017.6S
NORTHPORT PIER   0040   35     170/  5/  9 1017.9S
SISTER BAY       2350   35     170/ 12/ 15   N/A
KEWAUNEE LAKESHO 0030   36     160/  6/  7 1017.9S
SHEBOYGAN LAKESH 0000   37     180/  8/  8 1018.4F
PORT WASHINGTON  0030   38     190/  6/ 10 1019.0R
MILWAUKEE LAKESH 0030   39     170/  9/ 10   N/A
KENOSHA   LAKESH 0000   39     200/  7/ 12 1018.6
$$

TC  - TEMPERATURE IN CELSIUS
VSB - VISIBILITY IN STATUTE MILES
WCI - WIND CHILL INDEX
HX  - HEAT INDEX




USA.gov is the U.S. government's official web portal to all federal, state and local government web resources and services.